Yaogan Weixing 3

operational
NORAD ID: 32289 Int'l Des: 2007-055 Owner: ZZB Country: CN Constellation: yaogan
LEOCIRCULARRETROGRADESSO

About Yaogan Weixing 3

Description loading...

Live Position

Loading 3D Globe...

Upcoming Passes

Altitude History

Altitude vs Time

uPlot chart will show altitude changes over time

Two-Line Element Set

1 32289U 07055A 26063.00216259 .00001875 00000-0 19863-3 0 9994
2 32289 97.8277 93.8885 0001655 87.3006 272.8401 14.90325639990192
Epoch: Mar 4, 2026 • Age: 7 hours

Current Status

Altitude 607.8 km
Velocity 7.55 km/s
Sub-Earth Point -27.36°S, 3.32°W
Launch Date Nov 11, 2007
Age 18.3 years
Type military

Technical Details

Classification Payload
Mass 2700.00 kg
Dry Mass 2700.00 kg
Total Mass 2700.00 kg
Length 2.00 m
Diameter 2.00 m
Span 8.00 m
Shape Box + 2 Pan
Manufacturer SAST
Bus Type JB-5
Phase Status In Orbit
Owner/State ZZB/CN

Large Constellations

Loading constellations...